ONEWEB-0129, 47275

Orbit data source: Space-Track

ONEWEB-0129, 47275 is a payload satellite owned by One Web (UK) in LEO that was launched on Fri, 18 Dec 2020 UTC via a SOYUZ-2-1B launch vehicle from the Vostochny Cosmodrome (VOSTO). Payload-class satellites include a variety of spacecraft equipped with specific instruments for various scientific and technological missions. These include communications satellites like Starlink; space stations such as the ISS; scientific satellites like the Hubble; Earth observation satellites from companies like Planet Labs, Umbra, and HawkEye 360; GPS; miniature CubeSats for education and research; and military/defense satellites.

Loading next visibility...
Identifier
47275, 2020-100T
Orbit
LEO
Country
Flag of UKUK
Related business
Manufacturer
One Web
Mission
Operational Commercial Communications
Bus & Motor
ARROW, Unknown motor
Mass
148 kg wet, ~140 kg dry
Launch date (UTC)
2020-12-18 (5 years ago)
Launch vehicle
SOYUZ-2-1B
Launch site
Vostochny Cosmodrome (VOSTO)
Object type
Payload
Rocket body
Debris
Shape & HBR
Trap Box + 2 Pan, 6.7 m
Radar Cross Section
3.464 m², Large (>1 m²)

Expand to show TLE details & history
Last TLE update: 6 hours ago

TLE from 6 hours ago
0 ONEWEB-0129
1 47275U 20100T   26095.28003045  .00000395  00000-0  10639-2 0  9990
2 47275  87.9016   5.1342 0002296  48.6378 311.4947 13.12444417255112
Epoch: 2026-04-05T06:43Z
TLE epoch observation values (Epoch: 2026-04-05T06:43:14.630Z)
Latitude
-0.00012°
Longitude
70.73551°
Altitude
1,215.454 km
Speed
7.247 km/s
True Right ascension
00h 20m 32s
True Declination
0° 00' 00"
Sunlit
Object was in daylight at epoch
Visualization orbit readout
Latitude
Unknown
Longitude
Unknown
Altitude
Unknown
Speed
Unknown
Apparent Right ascension
Unknown
Apparent Declination
Unknown
Sunlit
N/A
Visualization observer readout
Local Sidereal Time
19:01:01
Azimuth
Unknown
Elevation
Unknown
Doppler factor
Unknown
Orbital elements
Apogee altitude
1,212.577 km
Perigee altitude
1,209.092 km
Semi-major axis
7,588.971 km
Eccentricity
0.00023
Inclination
87.9016°
RAAN
5.1342°
Arg. of periapsis
48.6378°
True anomaly
311.47499°
Mean anomaly
311.4947°
Eccentric anomaly
311.48485°
Mean motion
3.28298 °/min
Orbital period
109.66 mins
BSTAR
0.0010639
Loading maneuver chart data...
Computing Atmospheric mass density...
Loading historical data...
Loading historical data...
Loading historical data...
Loading historical data...
Loading historical data...
Loading historical data...
Loading historical data...

Documentation

Showing up to 5 results
|